GFSMA_con_sbcape_276.txt.gz
CAPE
0 0 0 0 0 0 0 0 0 0 5 1 1 9 5 0 0 0 0 0 1 4 26 29 24 15 11 7 63 4 0 54 186 186 267 313 367 402 309 491 573 520 311
0 0 0 0 0 0 0 0 0 0 6 2 0 0 12 12 0 0 0 0 0 0 5 18 24 13 19 14 102 1 0 89 161 281 151 351 346 399 561 568 522 505 456
0 0 0 0 0 0 0 0 0 0 0 0 1 0 0 7 3 0 0 0 0 0 0 0 0 0 0 79 99 8 11 59 165 230 210 93 242 377 552 518 536 505 456
0 0 0 0 0 0 0 0 0 8 11 0 0 0 4 6 13 0 0 0 0 0 0 0 0 0 0 116 97 81 49 30 0 9 121 96 159 362 552 428 414 443 482
0 0 0 0 0 0 0 0 5 13 5 0 0 2 2 2 11 1 0 0 0 0 0 0 0 0 3 96 141 145 70 0 0 0 0 0 47 128 243 405 353 325 392
0 0 0 0 0 0 0 2 23 2 0 0 9 5 0 0 0 0 0 0 0 0 0 0 0 0 0 89 120 102 115 15 0 0 0 0 0 0 86 143 240 321 303
0 0 0 0 1 0 2 2 0 2 0 0 7 16 0 0 0 0 0 0 0 0 0 0 0 0 0 45 63 50 163 0 0 0 0 0 0 5 0 0 1 123 289
0 0 0 9 2 8 3 0 2 5 3 6 19 8 9 0 0 0 1 0 0 0 0 0 0 0 0 0 11 98 8 0 24 16 2 10 4 12 0 6 0 0 35
0 0 0 9 16 5 1 1 1 2 5 7 10 18 13 20 2 6 1 0 0 0 0 0 0 0 0 0 8 30 32 0 0 0 0 0 1 15 35 9 20 0 0
0 0 0 0 0 8 6 2 10 4 5 7 9 32 19 11 37 17 1 1 0 0 0 0 0 0 0 0 7 20 74 4 0 0 0 0 0 0 0 8 20 42 0
0 0 0 0 0 0 0 2 10 15 8 12 17 18 9 24 5 23 20 5 0 0 0 0 0 0 0 0 0 0 126 72 0 0 0 0 0 0 0 0 0 38 0
0 0 0 0 0 0 0 0 4 5 0 22 14 29 21 11 13 10 18 7 9 0 0 0 0 0 0 0 0 0 12 73 62 2 0 0 0 0 0 0 0 11 5
0 0 0 0 0 0 0 0 0 1 1 3 4 6 30 17 23 21 13 23 9 5 0 0 0 0 0 0 0 1 33 21 79 48 1 0 0 0 0 0 0 0 3
0 0 0 0 0 0 0 0 0 0 6 0 0 0 4 8 23 30 25 10 11 11 5 0 0 0 0 0 0 0 0 111 133 47 14 7 17 0 0 20 0 15 45
0 0 0 0 0 0 0 0 0 0 8 9 0 0 0 0 13 2 4 0 4 7 14 2 0 0 0 0 0 0 0 30 71 53 31 52 20 16 15 63 69 139 104
0 0 0 0 0 0 0 0 0 0 1 0 0 0 14 2 0 7 0 4 0 0 0 0 0 0 0 0 0 0 0 0 3 27 35 79 36 17 18 47 43 64 63
0 0 0 0 0 0 0 0 0 0 0 0 0 0 0 1 0 7 0 0 8 3 8 0 0 0 0 0 0 0 0 0 0 0 1 3 52 48 20 33 65 11 3
0 0 0 0 0 0 0 0 0 0 0 0 0 0 0 0 2 6 2 4 9 5 10 1 0 0 0 0 0 0 0 0 0 0 0 0 0 49 89 55 52 5 0
0 0 0 0 0 0 0 0 0 0 0 0 0 0 0 0 0 6 5 0 2 2 4 12 11 0 0 0 0 0 0 0 0 0 0 0 0 0 17 100 97 64 24
0 0 0 0 0 0 0 0 0 0 0 0 0 0 0 0 0 24 19 0 3 1 2 13 8 0 0 0 0 0 0 0 0 0 0 0 0 0 0 5 134 122 64
0 0 0 0 0 0 0 0 0 0 0 0 0 0 0 19 37 24 10 1 9 0 7 7 5 0 0 0 0 0 0 0 0 0 0 0 0 0 0 0 0 96 98
0 0 0 0 0 0 13 32 1 0 0 0 0 0 0 0 0 0 17 2 9 10 0 0 4 3 0 1 0 0 0 0 0 0 0 0 0 0 0 0 0 0 37
0 0 0 0 0 0 12 27 2 0 0 0 0 0 0 0 0 0 0 1 0 0 28 1 1 0 0 0 0 0 0 0 0 0 1 0 0 0 0 0 0 0 0
0 0 0 0 0 0 2 31 2 0 0 0 0 0 0 0 0 0 0 0 0 0 0 0 1 0 0 0 0 0 0 0 0 0 0 0 0 0 0 0 0 0 0
0 0 0 0 0 0 0 12 1 0 0 0 0 0 0 0 13 5 0 0 0 0 0 2 0 3 4 34 2 0 0 0 0 2 2 12 0 0 0 0 0 0 0
0 0 0 0 0 0 0 4 2 0 0 0 0 0 0 2 13 13 0 0 0 0 0 0 0 0 0 0 0 0 0 0 0 0 2 1 0 0 0 0 0 0 0

GFSMA_con_sbcape_279.txt.gz
CAPE
0 0 0 0 0 0 0 1 5 7 8 9 4 2 5 9 6 3 2 7 13 26 34 51 43 36 52 39 16 14 45 88 16 44 147 361 304 504 349 389 477 544 363
0 0 0 0 0 0 0 0 3 6 14 10 5 3 4 3 3 5 3 3 9 14 32 45 40 34 45 46 29 18 22 83 21 62 93 238 269 333 472 327 308 270 505
0 0 0 0 0 0 3 2 2 9 18 7 2 3 9 6 10 8 10 7 6 3 4 17 34 37 33 38 26 20 40 59 53 177 196 99 116 263 366 325 339 363 559
0 0 0 0 0 0 1 12 16 7 25 18 3 2 8 11 19 16 18 19 9 3 0 0 1 7 12 10 18 96 131 53 119 43 164 217 161 103 136 220 444 508 475
0 0 0 0 2 3 9 20 17 24 18 8 4 6 7 5 14 12 12 11 8 4 0 0 0 0 0 0 0 117 107 149 94 72 32 26 4 47 146 232 266 419 447
0 0 0 0 4 19 6 13 11 22 22 8 9 6 16 5 2 15 6 5 10 1 0 0 0 0 0 0 2 100 158 161 86 16 8 1 4 4 2 80 276 257 240
0 0 1 7 41 28 8 2 4 6 7 20 14 11 5 6 1 24 33 7 15 0 0 0 0 0 0 0 7 106 185 193 44 21 8 0 0 5 4 2 1 88 253
0 0 0 8 9 40 23 22 15 12 6 39 16 9 7 1 14 6 19 9 19 2 0 0 0 0 0 0 7 124 157 4 29 71 51 35 6 0 0 5 0 1 124
0 0 0 3 5 5 24 50 41 29 26 8 31 37 18 43 6 14 32 0 11 0 0 0 0 0 0 6 96 184 87 0 0 0 2 7 32 44 34 11 17 3 1
0 0 0 0 1 1 4 19 44 59 49 21 43 24 21 25 39 32 21 8 2 1 0 0 0 0 0 4 30 143 139 47 3 0 0 0 0 0 0 16 30 4 40
0 0 0 0 0 1 1 5 20 49 47 28 53 64 23 10 19 42 12 10 3 7 0 0 0 3 0 0 23 115 189 97 7 0 0 0 0 0 0 0 0 23 47
0 0 0 0 0 0 0 1 0 6 39 32 40 14 56 14 8 22 15 18 8 8 7 0 0 6 11 44 1 1 31 106 89 7 0 0 0 0 0 0 0 0 22
0 0 0 0 0 0 0 0 0 9 29 29 28 25 12 47 50 22 29 34 22 7 14 0 0 0 1 3 41 52 56 51 108 17 0 0 0 0 0 0 0 0 0
0 0 0 0 0 0 2 2 1 5 25 24 16 26 35 15 18 52 42 33 29 14 12 13 2 0 0 0 0 1 115 184 88 78 0 0 0 0 0 0 36 0 39
0 0 0 0 0 0 0 0 0 0 0 0 13 6 41 38 9 39 47 4 27 27 22 12 7 0 0 0 0 0 0 90 96 67 71 36 2 1 15 48 85 106 205
0 0 0 0 0 0 0 0 0 0 0 0 0 13 30 14 19 16 35 45 45 24 21 11 8 4 0 0 0 0 0 0 17 42 45 56 35 5 13 27 27 51 66
0 0 0 0 0 0 0 0 0 0 0 0 0 0 6 6 12 21 21 32 38 32 24 5 1 1 1 0 0 0 0 0 0 1 3 6 7 44 10 24 48 20 17
0 0 0 0 0 0 0 0 0 0 0 0 0 0 0 1 1 18 15 48 55 31 26 17 2 1 0 0 0 0 0 0 0 0 1 0 0 0 29 30 19 0 0
0 0 0 0 0 0 0 0 0 0 0 0 0 0 3 16 8 40 26 11 41 35 23 30 19 12 4 0 0 0 0 0 0 0 0 0 0 0 0 1 63 14 0
0 0 0 0 0 0 0 0 0 0 0 0 0 0 0 7 35 23 11 6 44 42 40 49 26 3 0 0 1 4 2 4 0 0 0 0 0 0 0 0 1 93 34
0 0 0 0 0 0 0 1 0 0 0 0 0 0 0 15 68 40 43 10 5 15 14 35 28 15 30 10 6 6 5 3 3 1 2 2 0 0 0 0 0 0 47
0 0 0 0 0 0 1 40 4 0 0 0 0 0 0 0 0 37 33 17 3 21 2 9 10 10 19 7 3 3 11 6 6 4 8 4 6 0 0 0 0 0 0
0 0 0 0 0 0 1 18 14 0 0 0 0 0 0 0 0 0 0 0 0 0 9 19 3 9 7 1 1 1 6 3 16 8 9 13 7 13 2 0 0 0 0
0 0 0 0 0 0 0 2 6 0 0 0 0 0 0 0 3 0 0 6 0 2 6 15 23 12 1 0 6 9 9 4 5 2 8 13 5 6 3 2 0 0 0
0 0 0 0 0 0 0 2 6 0 0 0 0 0 0 0 14 9 0 4 2 4 0 3 4 4 3 1 8 13 20 6 5 10 10 17 30 19 16 3 3 0 0
0 0 0 0 0 0 0 1 4 0 0 0 0 0 0 5 11 10 1 0 0 4 1 0 1 0 0 0 1 1 5 5 4 6 14 11 14 24 15 9 11 5 2

GFSMA_con_sbcape_285.txt.gz
CAPE
0 0 0 1 5 5 5 2 1 2 0 0 0 0 0 0 0 1 2 0 2 6 16 26 46 41 44 59 42 38 36 41 55 28 18 31 105 203 235 281 327 329 311
0 0 0 2 4 5 8 6 7 4 2 1 0 0 0 0 1 1 2 3 5 11 16 25 37 49 41 59 66 54 27 42 49 41 22 21 33 149 214 218 332 411 334
0 0 1 2 4 7 2 5 2 2 5 2 0 1 1 0 1 0 7 6 8 10 12 26 42 52 63 56 50 74 82 52 28 37 18 29 27 119 229 300 344 483 477
0 1 4 7 9 6 4 9 9 12 6 2 6 2 2 0 0 0 6 14 7 4 12 22 44 55 62 60 47 57 56 50 34 40 35 19 61 116 236 201 366 363 518
0 1 3 6 5 13 9 12 14 18 20 14 7 8 2 2 0 1 8 9 8 29 23 15 32 56 71 68 69 60 55 65 37 34 33 40 119 148 250 248 236 435 448
0 0 1 3 3 5 2 6 22 38 31 30 2 14 9 0 11 46 20 16 16 21 5 21 33 8 57 52 51 60 62 52 37 28 28 51 159 184 237 266 182 104 59
0 0 0 1 3 5 8 20 32 30 45 32 38 20 12 0 4 0 7 16 14 2 5 14 21 22 32 25 23 33 49 41 36 18 123 193 187 229 282 309 148 173 61
0 0 0 0 1 3 3 6 12 38 45 59 61 35 14 1 0 0 7 22 28 0 0 5 32 15 35 23 19 10 6 1 9 139 187 235 243 219 170 68 140 6 0
0 1 1 1 2 3 4 9 13 39 64 40 35 56 10 25 12 4 3 20 29 0 0 1 47 25 12 33 13 1 47 37 152 255 221 230 192 119 43 85 57 6 1
0 0 3 6 6 8 5 5 8 15 39 33 22 26 20 51 39 1 2 14 42 0 0 5 5 143 61 83 114 135 127 46 0 1 36 230 256 175 118 79 56 12 5
0 0 1 5 2 11 9 8 5 6 11 12 29 15 39 40 38 32 5 10 23 0 0 4 10 50 121 164 155 166 72 68 0 0 0 5 21 3 0 5 0 15 1
0 0 0 6 9 8 5 14 9 8 7 7 16 19 29 60 51 39 25 33 52 3 0 3 3 6 2 14 9 48 21 149 2 0 0 2 2 1 0 0 0 3 5
0 0 0 2 6 2 9 7 8 12 10 12 7 15 17 45 57 56 25 13 39 36 9 2 2 1 1 1 9 29 41 12 98 15 13 28 16 0 0 0 0 0 0
0 0 0 0 4 8 7 8 9 14 8 17 6 10 26 30 29 30 61 27 15 47 29 15 6 7 0 2 14 3 12 61 118 107 23 44 43 5 0 0 2 13 0
0 0 0 0 0 5 10 6 19 3 4 9 5 7 13 22 28 13 55 70 45 40 17 23 15 9 6 0 1 0 1 82 92 88 63 38 21 12 1 1 10 1 0
0 0 0 0 0 0 2 1 13 11 1 8 5 6 15 7 16 36 33 50 75 59 46 43 24 24 3 5 6 0 0 24 42 40 33 55 59 47 38 23 20 10 45
0 0 0 0 0 0 1 0 8 11 1 0 2 9 16 10 15 57 38 12 56 67 29 25 34 20 11 2 1 0 0 4 6 7 18 0 4 22 72 55 1 0 0
0 0 0 0 0 0 0 4 7 11 1 0 0 3 6 7 26 41 67 36 42 44 54 21 25 20 21 15 7 4 1 0 2 0 0 0 0 0 0 2 26 0 0
0 0 0 0 0 0 0 2 7 9 4 0 0 1 6 7 10 35 33 32 52 34 39 64 45 38 24 24 6 2 3 0 0 0 0 0 0 0 0 0 0 6 1
0 0 0 0 0 0 0 1 11 11 9 2 1 1 1 9 10 48 28 22 23 24 34 34 47 47 34 16 11 3 3 4 6 0 0 0 0 0 0 0 0 0 0
0 0 0 0 0 0 0 0 6 11 16 2 4 0 1 0 18 41 31 19 2 25 29 8 10 0 11 12 9 12 9 9 8 2 0 0 0 0 0 0 0 0 0
0 0 0 0 0 0 0 0 4 9 16 3 1 0 0 1 14 23 24 16 9 1 2 21 7 6 6 3 1 0 3 0 4 8 3 2 1 0 0 0 0 0 0
0 0 0 0 0 0 0 0 2 3 17 4 0 0 0 0 17 23 17 20 4 5 5 10 10 22 7 0 5 1 0 0 0 0 4 1 11 5 1 0 2 0 0
0 0 0 0 0 0 0 0 0 0 9 3 0 0 0 0 14 23 18 4 2 0 2 0 5 0 3 1 20 13 0 0 0 9 17 4 6 0 2 1 5 2 0
0 0 0 0 0 0 0 0 0 0 2 4 0 0 0 0 13 13 12 3 1 4 5 0 1 3 4 5 6 6 10 11 0 0 5 8 0 4 0 1 0 3 2
0 0 0 0 0 0 0 0 0 0 0 2 0 0 0 0 7 7 7 15 1 0 5 0 4 0 0 1 2 3 3 1 5 0 15 9 2 2 1 1 0 0 0

GFSMA_con_sbcape_291.txt.gz
CAPE
0 0 0 0 0 0 0 0 0 0 0 0 0 0 0 0 0 0 0 0 0 11 23 36 46 47 45 40 38 49 29 35 40 52 45 47 41 23 37 36 43 43 132
0 0 0 0 0 0 0 0 0 0 0 0 0 0 0 0 0 0 0 0 0 12 13 20 29 45 54 60 51 53 55 35 33 29 63 62 64 55 50 42 60 47 42
0 0 0 0 0 0 0 0 0 0 0 0 0 0 0 0 0 0 0 0 0 0 3 11 27 47 63 58 64 63 49 40 47 43 42 42 43 51 56 47 50 55 28
0 0 0 0 0 0 0 0 0 0 0 0 0 0 0 0 0 0 0 0 0 0 0 8 20 34 46 57 60 64 67 66 48 36 61 49 43 100 62 48 45 38 47
0 0 0 0 0 0 0 0 0 0 0 0 0 0 0 0 0 0 0 0 0 0 0 0 6 13 15 48 68 70 74 70 75 47 57 67 60 51 63 36 34 41 25
0 0 0 0 0 0 0 0 0 0 0 0 0 0 0 0 0 0 0 0 0 0 0 0 0 0 18 58 85 103 94 104 80 105 60 48 53 75 80 49 29 32 49
0 0 0 0 0 0 0 0 0 0 0 0 0 0 0 0 0 0 0 0 0 0 0 0 0 0 1 31 43 127 131 103 85 64 63 66 47 48 105 57 70 33 57
0 0 0 0 0 0 0 0 0 0 0 0 0 0 0 0 0 0 0 0 0 0 0 0 0 0 0 4 3 69 132 158 121 127 131 101 79 75 71 54 39 33 61
0 0 0 0 0 0 0 0 0 0 0 0 0 0 2 0 0 0 0 0 0 0 0 0 4 0 1 0 7 11 88 217 187 141 97 121 95 96 73 46 36 81 175
0 0 0 0 0 0 0 0 0 0 0 0 0 1 0 0 1 6 0 0 0 0 0 0 0 0 0 0 2 9 131 125 251 152 121 63 61 59 50 40 143 258 316
0 0 0 0 0 0 0 0 0 0 0 0 0 0 0 0 0 10 3 0 0 0 0 0 0 0 0 0 0 12 66 29 152 80 170 239 70 52 229 282 334 381 340
0 0 0 0 0 0 0 0 0 0 0 0 0 0 0 0 0 8 14 0 7 0 0 0 0 0 0 0 7 69 55 60 81 43 28 40 107 175 50 47 64 38 107
0 0 0 0 0 0 0 0 0 0 0 0 0 0 0 0 0 1 10 2 5 0 0 0 0 0 0 0 3 30 29 109 63 38 28 76 40 37 37 63 18 15 31
0 0 0 0 0 0 0 0 0 0 0 0 0 0 0 0 0 6 14 11 5 6 0 0 0 0 0 0 24 39 39 80 116 68 26 49 52 84 72 46 47 39 0
0 0 0 0 0 0 0 0 0 0 0 0 0 0 0 0 0 0 0 3 24 18 0 0 0 0 0 0 22 4 21 34 91 88 87 46 53 54 49 86 69 112 122
0 0 0 0 0 0 0 0 0 0 0 0 0 0 0 0 0 0 0 0 0 9 19 0 0 0 0 0 1 0 0 0 22 72 55 48 72 61 100 98 90 39 51
0 0 0 0 0 0 0 0 0 0 0 0 0 0 0 0 0 0 0 0 0 0 10 0 10 3 0 0 0 0 0 0 0 34 36 11 20 83 106 107 89 83 60
0 0 0 0 0 0 0 0 0 0 0 0 0 0 0 0 0 0 0 0 0 0 7 4 3 0 8 0 0 0 0 0 0 2 17 9 8 6 36 36 47 79 18
0 0 0 0 0 0 0 0 0 0 0 0 0 0 0 0 0 0 3 0 0 0 3 4 0 0 0 0 0 0 0 0 0 0 1 0 1 12 8 0 0 0 0
0 0 0 0 0 0 0 0 0 0 0 0 0 0 0 0 0 0 10 0 0 0 0 0 0 0 0 0 0 0 0 0 0 0 0 0 0 0 3 1 0 0 0
0 0 0 0 0 0 0 0 0 0 0 0 0 0 0 0 2 10 24 9 0 0 0 0 1 0 5 1 0 0 0 1 0 0 0 0 0 0 0 0 0 0 0
0 0 0 0 0 0 0 0 0 0 0 0 0 0 0 0 0 4 27 16 11 5 1 0 0 0 3 0 0 2 0 0 0 0 0 0 0 0 0 0 3 1 0
0 0 0 0 0 0 0 0 0 0 0 0 0 0 0 0 0 0 7 2 3 5 8 0 0 0 0 0 1 0 0 0 0 0 0 0 0 0 0 0 5 3 3
0 0 0 0 0 0 0 0 0 0 0 0 0 0 0 0 0 0 0 0 0 0 0 0 0 0 0 0 0 2 0 0 0 0 1 0 0 0 0 0 5 5 7
0 0 0 0 0 0 0 0 0 0 0 0 0 0 0 0 0 0 0 0 0 0 0 2 3 2 0 3 2 0 0 0 0 0 0 0 0 0 0 0 0 0 0
0 0 0 0 0 0 0 0 0 0 0 0 0 0 0 0 0 0 0 0 0 0 0 0 0 0 0 0 0 0 0 0 0 0 0 0 0 0 0 0 0 0 0